Miscellaneous Local Product
Issued by NWS North Platte, NE

Home | Current Version | Previous Version | Text Only | Print | Product List | Glossary On
Versions: 1 2 3 4 5 6 7 8 9 10 11 12 13 14 15 16 17 18 19 20 21 22 23 24 25 26 27 28 29 30 31 32 33 34 35 36 37 38 39 40 41 42 43 44 45 46 47 48 49 50
000
AXUS43 KLBF 271710
MISLBF


WESTERN AND NORTH CENTRAL NEBRASKA HOURLY WEATHER ROUNDUP
NATIONAL WEATHER SERVICE NORTH PLATTE NE
1200 PM CDT MON JUL 27 2015

***STATIONS NOT REPORTING VARIABLES SUCH AS SKY/WEATHER OR
PRESSURE ARE PROVIDED BY THE NEBRASKA DEPARTMENT OF
ROADS...RAWS...AND APRS NETWORKS...AND ARE NOT UNDER
NATIONAL WEATHER SERVICE QUALITY CONTROL***

...OBSERVATIONS IN AND NEAR THE EASTERN PANHANDLE OF NEBRASKA...

CITY           SKY/WX    TMP DP  RH WIND       PRES   REMARKS
PINE RIDGE     SUNNY     85  65  51 SE8       29.80F
CHADRON        SUNNY     86  63  45 SE8       29.78F
ALLIANCE       SUNNY     82  66  58 SE17G24   29.85S
SIDNEY         SUNNY     82  65  56 S9        29.90S
BIG SPRINGS      N/A     79  70  74 S6          N/A
$$

...OBSERVATIONS IN NORTH CENTRAL NEBRASKA...

CITY           SKY/WX    TMP DP  RH WIND       PRES   REMARKS
VALENTINE      SUNNY     84  63  49 SE13G23   29.84F
THEDFORD       SUNNY     82  68  63 S13G20    29.87F
AINSWORTH      SUNNY     85  64  49 SE18      29.85F
O`NEILL        MOSUNNY   88  67  48 SE13      29.87F HX  91
ORD            SUNNY     86  65  49 S8G17     29.86F
BROKEN BOW     SUNNY     83  68  60 S10G23    29.88F
SPRINGVIEW       N/A     85  67  54 SE8G21      N/A
CHAMBERS         N/A     89  65  45 S5G12       N/A  HX  91
EWING            N/A     84  79  84 SE3         N/A  HX  95
$$

...OBSERVATIONS IN SOUTHWEST NEBRASKA AND FAR NORTHEAST COLORADO...

CITY           SKY/WX    TMP DP  RH WIND       PRES   REMARKS
WRAY           FAIR      89  60  37 S18G24    29.88F
HOLYOKE        FAIR      84  68  58 SE9       29.88S
IMPERIAL       SUNNY     85  65  51 S12       29.87F
OGALLALA       MOSUNNY   78  68  71 SE8       29.87F
NORTH PLATTE   PTSUNNY   82  67  60 S17G24    29.86F
MCCOOK         MOSUNNY   86  67  52 S18G28    29.87F
LEXINGTON      MOSUNNY   85  69  59 SE12      29.88F
PAXTON           N/A     77  71  81 SE9         N/A
BRADY            N/A     81  70  69 CALM        N/A
CALLAWAY         N/A     82  74  77 S14         N/A
$$

...NORTH PLATTE AREA...

CITY           SKY/WX    TMP DP  RH WIND       PRES   REMARKS
AIRPORT        PTSUNNY   82  67  60 S17G24    29.86F
DOWNTOWN         N/A     82  69  63 S6G14       N/A
HILLCREST        N/A     82  69  63 S7G16       N/A
$$

...SOME WEATHER OBSERVATIONS FROM AROUND THE REGION...

CITY           SKY/WX    TMP DP  RH WIND       PRES   REMARKS
DENVER         MOSUNNY   90  44  20 W7        29.95F
LARAMIE        SUNNY     81  40  23 W22G29    30.06F
CHEYENNE       SUNNY     86  43  22 W10       29.98F
SCOTTSBLUFF    SUNNY     81  65  58 E10       29.84F
RAPID CITY     MOSUNNY   83  65  54 S16       29.76F
PIERRE         SUNNY     89  64  43 SE16      29.77F HX  90
WINNER         FAIR      88  62  41 SE12      29.82F
SIOUX FALLS    MOSUNNY   83  68  60 S17       29.86F
OMAHA          CLOUDY    82  77  84 SE3       29.91R HX  90
GRAND ISLAND   MOSUNNY   84  67  56 SE14      29.91R
KANSAS CITY    CLOUDY    87  77  72 S9        29.93R HX  99
WICHITA        PTSUNNY   90  71  53 S9        29.92S HX  96
HAYS           PTSUNNY   88  66  48 S24G30    29.88F HX  90
LIBERAL        SUNNY     90  68  48 S13G22    29.93F HX  93
GOODLAND       MOSUNNY   80  66  62 S21G30    29.91F
$$



USA.gov is the U.S. government's official web portal to all federal, state and local government web resources and services.